Time,TemperatureF,DewpointF,PressureIn,WindDirection,WindDirectionDegrees,WindSpeedMPH,WindSpeedGustMPH,Humidity,HourlyPrecipIn,Conditions,Clouds,dailyrainin,SoftwareType,DateUTC
2013-04-18 00:01:00,47.7,34.1,30.20,West,274,0.0,0.0,59,0.00,,---,0.00,VWS V14.01,2013-04-18 07:01:00,
2013-04-18 00:06:00,47.4,33.4,30.20,West,274,0.0,0.0,58,0.00,,---,0.00,VWS V14.01,2013-04-18 07:06:00,
2013-04-18 00:11:00,47.2,34.0,30.21,West,274,0.0,0.0,60,0.00,,---,0.00,VWS V14.01,2013-04-18 07:11:00,
2013-04-18 00:16:00,47.0,33.8,30.20,West,274,0.0,0.0,60,0.00,,---,0.00,VWS V14.01,2013-04-18 07:16:00,
2013-04-18 00:21:00,46.8,33.7,30.20,West,274,0.0,0.0,60,0.00,,---,0.00,VWS V14.01,2013-04-18 07:21:00,
2013-04-18 00:26:00,46.7,34.0,30.21,West,274,0.0,0.0,61,0.00,,---,0.00,VWS V14.01,2013-04-18 07:26:00,
2013-04-18 00:31:00,46.5,33.8,30.21,West,274,0.0,0.0,61,0.00,,---,0.00,VWS V14.01,2013-04-18 07:31:00,
2013-04-18 00:36:00,46.3,33.6,30.21,West,274,0.0,0.0,61,0.00,,---,0.00,VWS V14.01,2013-04-18 07:36:00,
2013-04-18 00:41:00,46.2,33.9,30.21,West,274,0.0,0.0,62,0.00,,---,0.00,VWS V14.01,2013-04-18 07:41:00,
2013-04-18 00:46:00,46.0,33.7,30.21,West,274,0.0,0.0,62,0.00,,---,0.00,VWS V14.01,2013-04-18 07:46:00,
2013-04-18 00:51:00,45.8,33.1,30.21,West,274,0.0,0.0,61,0.00,,---,0.00,VWS V14.01,2013-04-18 07:51:00,
2013-04-18 00:56:00,45.7,33.0,30.21,West,274,0.0,0.0,61,0.00,,---,0.00,VWS V14.01,2013-04-18 07:56:00,
2013-04-18 01:01:00,45.6,33.3,30.21,West,274,0.0,0.0,62,0.00,,---,0.00,VWS V14.01,2013-04-18 08:01:00,
2013-04-18 01:06:00,45.4,33.2,30.20,West,274,0.0,0.0,62,0.00,,---,0.00,VWS V14.01,2013-04-18 08:06:00,
2013-04-18 01:11:00,45.2,33.4,30.20,West,274,0.0,0.0,63,0.00,,---,0.00,VWS V14.01,2013-04-18 08:11:00,
2013-04-18 01:16:00,45.0,33.6,30.20,West,274,0.0,0.0,64,0.00,,---,0.00,VWS V14.01,2013-04-18 08:16:00,
2013-04-18 01:21:00,44.9,33.9,30.20,SSE,148,0.0,0.0,65,0.00,,---,0.00,VWS V14.01,2013-04-18 08:21:00,
2013-04-18 01:26:00,44.9,33.9,30.20,SSE,148,0.0,0.0,65,0.00,,---,0.00,VWS V14.01,2013-04-18 08:26:00,
2013-04-18 01:31:00,45.0,34.0,30.20,SSE,148,0.0,0.0,65,0.00,,---,0.00,VWS V14.01,2013-04-18 08:31:00,
2013-04-18 01:36:00,44.9,33.9,30.20,SSE,148,0.0,0.0,65,0.00,,---,0.00,VWS V14.01,2013-04-18 08:36:00,
2013-04-18 01:41:00,44.7,34.0,30.20,SSE,148,0.0,0.0,66,0.00,,---,0.00,VWS V14.01,2013-04-18 08:41:00,
2013-04-18 01:46:00,44.6,34.3,30.20,SE,142,0.0,1.0,67,0.00,,---,0.00,VWS V14.01,2013-04-18 08:46:00,
2013-04-18 01:51:00,44.5,34.2,30.21,ESE,117,2.0,2.0,67,0.00,,---,0.00,VWS V14.01,2013-04-18 08:51:00,
2013-04-18 01:57:00,44.5,34.2,30.21,ESE,117,0.0,2.0,67,0.00,,---,0.00,VWS V14.01,2013-04-18 08:57:00,
2013-04-18 02:02:00,44.5,34.2,30.20,ESE,117,0.0,0.0,67,0.00,,---,0.00,VWS V14.01,2013-04-18 09:02:00,
2013-04-18 02:07:00,44.4,34.5,30.20,ESE,117,0.0,0.0,68,0.00,,---,0.00,VWS V14.01,2013-04-18 09:07:00,
2013-04-18 02:12:00,44.3,34.8,30.20,ESE,117,0.0,0.0,69,0.00,,---,0.00,VWS V14.01,2013-04-18 09:12:00,
2013-04-18 02:17:00,44.2,34.7,30.20,ESE,117,0.0,0.0,69,0.00,,---,0.00,VWS V14.01,2013-04-18 09:17:00,
2013-04-18 02:22:00,44.1,34.6,30.20,ESE,117,0.0,0.0,69,0.00,,---,0.00,VWS V14.01,2013-04-18 09:22:00,
2013-04-18 02:27:00,43.9,34.4,30.20,ESE,117,0.0,0.0,69,0.00,,---,0.00,VWS V14.01,2013-04-18 09:27:00,
2013-04-18 02:31:00,43.8,34.3,30.20,ESE,117,0.0,0.0,69,0.00,,---,0.00,VWS V14.01,2013-04-18 09:31:00,
2013-04-18 02:36:00,43.6,34.5,30.20,ESE,117,0.0,0.0,70,0.00,,---,0.00,VWS V14.01,2013-04-18 09:36:00,
2013-04-18 02:41:00,43.4,34.6,30.20,ESE,117,0.0,0.0,71,0.00,,---,0.00,VWS V14.01,2013-04-18 09:41:00,
2013-04-18 02:46:00,43.2,34.5,30.20,ESE,117,0.0,0.0,71,0.00,,---,0.00,VWS V14.01,2013-04-18 09:46:00,
2013-04-18 02:51:00,43.1,34.3,30.20,ESE,117,0.0,0.0,71,0.00,,---,0.00,VWS V14.01,2013-04-18 09:51:00,
2013-04-18 02:56:00,43.0,34.2,30.20,ESE,117,0.0,0.0,71,0.00,,---,0.00,VWS V14.01,2013-04-18 09:56:00,
2013-04-18 03:01:00,43.0,34.2,30.20,ESE,117,0.0,0.0,71,0.00,,---,0.00,VWS V14.01,2013-04-18 10:01:00,
2013-04-18 03:06:00,42.9,34.2,30.20,ESE,117,0.0,0.0,71,0.00,,---,0.00,VWS V14.01,2013-04-18 10:06:00,
2013-04-18 03:11:00,42.8,34.1,30.20,ESE,117,0.0,0.0,71,0.00,,---,0.00,VWS V14.01,2013-04-18 10:11:00,
2013-04-18 03:16:00,42.6,33.9,30.20,ESE,117,0.0,0.0,71,0.00,,---,0.00,VWS V14.01,2013-04-18 10:16:00,
2013-04-18 03:21:00,42.5,33.8,30.20,ESE,117,0.0,0.0,71,0.00,,---,0.00,VWS V14.01,2013-04-18 10:21:00,
2013-04-18 03:26:00,42.4,33.7,30.20,ESE,117,0.0,0.0,71,0.00,,---,0.00,VWS V14.01,2013-04-18 10:26:00,
2013-04-18 03:32:00,42.3,33.9,30.20,ESE,117,0.0,0.0,72,0.00,,---,0.00,VWS V14.01,2013-04-18 10:32:00,
2013-04-18 03:37:00,42.1,34.1,30.20,ESE,117,0.0,0.0,73,0.00,,---,0.00,VWS V14.01,2013-04-18 10:37:00,
2013-04-18 03:42:00,42.1,34.1,30.20,ESE,117,0.0,0.0,73,0.00,,---,0.00,VWS V14.01,2013-04-18 10:42:00,
2013-04-18 03:46:00,42.1,34.4,30.20,ESE,117,0.0,0.0,74,0.00,,---,0.00,VWS V14.01,2013-04-18 10:46:00,
2013-04-18 03:52:00,42.1,34.4,30.21,ESE,117,0.0,0.0,74,0.00,,---,0.00,VWS V14.01,2013-04-18 10:52:00,
2013-04-18 03:57:00,42.0,34.3,30.21,ESE,117,0.0,0.0,74,0.00,,---,0.00,VWS V14.01,2013-04-18 10:57:00,
2013-04-18 04:02:00,42.0,34.3,30.21,ESE,117,0.0,0.0,74,0.00,,---,0.00,VWS V14.01,2013-04-18 11:02:00,
2013-04-18 04:06:00,42.0,34.7,30.20,ESE,117,0.0,0.0,75,0.00,,---,0.00,VWS V14.01,2013-04-18 11:06:00,
2013-04-18 04:11:00,41.9,34.6,30.20,ESE,117,0.0,0.0,75,0.00,,---,0.00,VWS V14.01,2013-04-18 11:11:00,
2013-04-18 04:16:00,41.9,34.6,30.21,ESE,117,0.0,0.0,75,0.00,,---,0.00,VWS V14.01,2013-04-18 11:16:00,
2013-04-18 04:21:00,41.8,34.5,30.21,ESE,117,0.0,0.0,75,0.00,,---,0.00,VWS V14.01,2013-04-18 11:21:00,
2013-04-18 04:27:00,41.6,34.3,30.21,ESE,117,0.0,0.0,75,0.00,,---,0.00,VWS V14.01,2013-04-18 11:27:00,
2013-04-18 04:32:00,41.5,34.2,30.21,ESE,117,0.0,0.0,75,0.00,,---,0.00,VWS V14.01,2013-04-18 11:32:00,
2013-04-18 04:37:00,41.4,34.4,30.20,ESE,117,0.0,0.0,76,0.00,,---,0.00,VWS V14.01,2013-04-18 11:37:00,
2013-04-18 04:42:00,41.4,34.4,30.20,ESE,117,0.0,0.0,76,0.00,,---,0.00,VWS V14.01,2013-04-18 11:42:00,
2013-04-18 04:47:00,41.4,34.4,30.20,ESE,117,0.0,0.0,76,0.00,,---,0.00,VWS V14.01,2013-04-18 11:47:00,
2013-04-18 04:52:00,41.4,34.4,30.21,ESE,117,0.0,0.0,76,0.00,,---,0.00,VWS V14.01,2013-04-18 11:52:00,
2013-04-18 04:57:00,41.2,34.5,30.21,ESE,117,0.0,0.0,77,0.00,,---,0.00,VWS V14.01,2013-04-18 11:57:00,
2013-04-18 05:02:00,41.1,34.5,30.21,ESE,117,0.0,0.0,77,0.00,,---,0.00,VWS V14.01,2013-04-18 12:02:00,
2013-04-18 05:07:00,41.1,34.5,30.21,ESE,117,0.0,0.0,77,0.00,,---,0.00,VWS V14.01,2013-04-18 12:07:00,
2013-04-18 05:12:00,41.0,34.7,30.21,ESE,117,0.0,0.0,78,0.00,,---,0.00,VWS V14.01,2013-04-18 12:12:00,
2013-04-18 05:17:00,40.9,34.6,30.21,ESE,117,0.0,0.0,78,0.00,,---,0.00,VWS V14.01,2013-04-18 12:17:00,
2013-04-18 05:22:00,40.9,34.6,30.21,ESE,117,0.0,0.0,78,0.00,,---,0.00,VWS V14.01,2013-04-18 12:22:00,
2013-04-18 05:27:00,40.9,34.6,30.20,ESE,117,0.0,0.0,78,0.00,,---,0.00,VWS V14.01,2013-04-18 12:27:00,
2013-04-18 05:32:00,40.9,34.6,30.21,ESE,117,0.0,0.0,78,0.00,,---,0.00,VWS V14.01,2013-04-18 12:32:00,
2013-04-18 05:37:00,40.9,34.6,30.22,ESE,117,0.0,0.0,78,0.00,,---,0.00,VWS V14.01,2013-04-18 12:37:00,
2013-04-18 05:42:00,40.9,34.6,30.22,ESE,117,0.0,0.0,78,0.00,,---,0.00,VWS V14.01,2013-04-18 12:42:00,
2013-04-18 05:46:00,40.9,34.6,30.22,ESE,117,0.0,0.0,78,0.00,,---,0.00,VWS V14.01,2013-04-18 12:46:00,
2013-04-18 05:52:00,40.9,34.6,30.21,ESE,117,0.0,0.0,78,0.00,,---,0.00,VWS V14.01,2013-04-18 12:52:00,
2013-04-18 05:57:00,40.9,34.6,30.22,ESE,117,0.0,0.0,78,0.00,,---,0.00,VWS V14.01,2013-04-18 12:57:00,
2013-04-18 06:02:00,40.9,34.6,30.22,ESE,117,0.0,0.0,78,0.00,,---,0.00,VWS V14.01,2013-04-18 13:02:00,
2013-04-18 06:07:00,40.9,34.6,30.23,ESE,117,0.0,0.0,78,0.00,,---,0.00,VWS V14.01,2013-04-18 13:07:00,
2013-04-18 06:12:00,40.9,34.6,30.23,ESE,117,0.0,0.0,78,0.00,,---,0.00,VWS V14.01,2013-04-18 13:12:00,
2013-04-18 06:17:00,40.9,34.6,30.23,ESE,117,0.0,0.0,78,0.00,,---,0.00,VWS V14.01,2013-04-18 13:17:00,
2013-04-18 06:22:00,40.9,34.6,30.23,ESE,117,0.0,0.0,78,0.00,,---,0.00,VWS V14.01,2013-04-18 13:22:00,
2013-04-18 06:27:00,40.9,34.6,30.23,ESE,117,0.0,0.0,78,0.00,,---,0.00,VWS V14.01,2013-04-18 13:27:00,
2013-04-18 06:32:00,40.9,34.6,30.23,ESE,117,0.0,0.0,78,0.00,,---,0.00,VWS V14.01,2013-04-18 13:32:00,
2013-04-18 06:37:00,40.9,34.6,30.23,ESE,117,0.0,0.0,78,0.00,,---,0.00,VWS V14.01,2013-04-18 13:37:00,
2013-04-18 06:42:00,40.9,34.6,30.23,ESE,117,0.0,0.0,78,0.00,,---,0.00,VWS V14.01,2013-04-18 13:42:00,
2013-04-18 06:47:00,40.9,34.6,30.24,ESE,117,0.0,0.0,78,0.00,,---,0.00,VWS V14.01,2013-04-18 13:47:00,
2013-04-18 06:52:00,40.9,34.6,30.23,ESE,117,0.0,0.0,78,0.00,,---,0.00,VWS V14.01,2013-04-18 13:52:00,
2013-04-18 06:57:00,40.9,34.6,30.24,ESE,117,0.0,0.0,78,0.00,,---,0.00,VWS V14.01,2013-04-18 13:57:00,
2013-04-18 07:02:00,40.9,34.6,30.24,ESE,117,0.0,0.0,78,0.00,,---,0.00,VWS V14.01,2013-04-18 14:02:00,
2013-04-18 07:07:00,40.9,35.2,30.24,ESE,117,0.0,0.0,80,0.00,,---,0.00,VWS V14.01,2013-04-18 14:07:00,
2013-04-18 07:12:00,41.4,35.7,30.24,ESE,117,0.0,0.0,80,0.00,,---,0.00,VWS V14.01,2013-04-18 14:12:00,
2013-04-18 07:17:00,42.2,36.2,30.24,ESE,117,0.0,0.0,79,0.00,,---,0.00,VWS V14.01,2013-04-18 14:17:00,
2013-04-18 07:21:00,43.1,36.7,30.25,ESE,117,0.0,0.0,78,0.00,,---,0.00,VWS V14.01,2013-04-18 14:21:00,
2013-04-18 07:26:00,44.1,37.4,30.25,ESE,117,0.0,0.0,77,0.00,,---,0.00,VWS V14.01,2013-04-18 14:26:00,
2013-04-18 07:32:00,45.1,37.3,30.25,ESE,117,0.0,0.0,74,0.00,,---,0.00,VWS V14.01,2013-04-18 14:32:00,
2013-04-18 07:37:00,46.3,37.4,30.25,ESE,117,0.0,1.0,71,0.00,,---,0.00,VWS V14.01,2013-04-18 14:37:00,
2013-04-18 07:42:00,47.4,37.8,30.25,ESE,117,0.0,1.0,69,0.00,,---,0.00,VWS V14.01,2013-04-18 14:42:00,
2013-04-18 07:47:00,48.6,38.5,30.25,East,101,0.0,1.0,68,0.00,,---,0.00,VWS V14.01,2013-04-18 14:47:00,
2013-04-18 07:52:00,49.4,37.8,30.25,East,98,0.0,1.0,64,0.00,,---,0.00,VWS V14.01,2013-04-18 14:52:00,
2013-04-18 07:57:00,50.4,39.1,30.25,East,98,0.0,1.0,65,0.00,,---,0.00,VWS V14.01,2013-04-18 14:57:00,
2013-04-18 08:02:00,51.5,38.9,30.25,East,98,0.0,1.0,62,0.00,,---,0.00,VWS V14.01,2013-04-18 15:02:00,
2013-04-18 08:07:00,52.5,39.0,30.25,East,90,0.0,1.0,60,0.00,,---,0.00,VWS V14.01,2013-04-18 15:07:00,
2013-04-18 08:12:00,53.4,38.6,30.25,East,90,0.0,1.0,57,0.00,,---,0.00,VWS V14.01,2013-04-18 15:12:00,
2013-04-18 08:17:00,54.2,38.4,30.25,East,90,1.0,1.0,55,0.00,,---,0.00,VWS V14.01,2013-04-18 15:17:00,
2013-04-18 08:22:00,54.9,37.1,30.25,East,95,0.0,1.0,51,0.00,,---,0.00,VWS V14.01,2013-04-18 15:22:00,
2013-04-18 08:27:00,55.3,37.5,30.25,SE,139,0.0,2.0,51,0.00,,---,0.00,VWS V14.01,2013-04-18 15:27:00,
2013-04-18 08:32:00,56.0,38.2,30.25,SE,138,0.0,0.0,51,0.00,,---,0.00,VWS V14.01,2013-04-18 15:32:00,
2013-04-18 08:37:00,56.9,37.4,30.25,ESE,121,0.0,1.0,48,0.00,,---,0.00,VWS V14.01,2013-04-18 15:37:00,
2013-04-18 08:42:00,57.5,36.9,30.25,ESE,121,0.0,1.0,46,0.00,,---,0.00,VWS V14.01,2013-04-18 15:42:00,
2013-04-18 08:47:00,58.0,36.8,30.25,ESE,121,0.0,1.0,45,0.00,,---,0.00,VWS V14.01,2013-04-18 15:47:00,
2013-04-18 08:52:00,59.0,37.1,30.25,East,97,0.0,0.0,44,0.00,,---,0.00,VWS V14.01,2013-04-18 15:52:00,
2013-04-18 08:57:00,59.4,36.9,30.25,ESE,105,0.0,2.0,43,0.00,,---,0.00,VWS V14.01,2013-04-18 15:57:00,
2013-04-18 09:02:00,60.1,38.1,30.25,East,93,2.0,2.0,44,0.00,,---,0.00,VWS V14.01,2013-04-18 16:02:00,
2013-04-18 09:07:00,60.6,37.4,30.25,East,93,1.0,3.0,42,0.00,,---,0.00,VWS V14.01,2013-04-18 16:07:00,
2013-04-18 09:12:00,61.1,37.2,30.25,East,90,1.0,1.0,41,0.00,,---,0.00,VWS V14.01,2013-04-18 16:12:00,
2013-04-18 09:17:00,61.7,35.9,30.25,ESE,103,0.0,2.0,38,0.00,,---,0.00,VWS V14.01,2013-04-18 16:17:00,
2013-04-18 09:22:00,62.3,36.4,30.25,East,80,0.0,1.0,38,0.00,,---,0.00,VWS V14.01,2013-04-18 16:22:00,
2013-04-18 09:27:00,62.9,36.9,30.25,ENE,78,0.0,1.0,38,0.00,,---,0.00,VWS V14.01,2013-04-18 16:27:00,
2013-04-18 09:32:00,63.8,35.7,30.25,East,88,0.0,0.0,35,0.00,,---,0.00,VWS V14.01,2013-04-18 16:32:00,
2013-04-18 09:37:00,64.5,35.5,30.25,East,90,0.0,1.0,34,0.00,,---,0.00,VWS V14.01,2013-04-18 16:37:00,
2013-04-18 09:42:00,65.4,36.3,30.25,East,90,0.0,0.0,34,0.00,,---,0.00,VWS V14.01,2013-04-18 16:42:00,
2013-04-18 09:47:00,66.0,36.8,30.25,East,90,0.0,1.0,34,0.00,,---,0.00,VWS V14.01,2013-04-18 16:47:00,
2013-04-18 09:52:00,66.4,36.5,30.25,NW,304,0.0,2.0,33,0.00,,---,0.00,VWS V14.01,2013-04-18 16:52:00,
2013-04-18 09:57:00,66.1,35.4,30.25,NW,317,0.0,2.0,32,0.00,,---,0.00,VWS V14.01,2013-04-18 16:57:00,
2013-04-18 10:02:00,65.7,35.8,30.25,West,279,1.0,1.0,33,0.00,,---,0.00,VWS V14.01,2013-04-18 17:02:00,
2013-04-18 10:07:00,65.9,36.0,30.25,NNW,330,0.0,1.0,33,0.00,,---,0.00,VWS V14.01,2013-04-18 17:07:00,
2013-04-18 10:12:00,66.1,35.4,30.25,North,355,0.0,0.0,32,0.00,,---,0.00,VWS V14.01,2013-04-18 17:12:00,
2013-04-18 10:17:00,66.4,35.7,30.24,NE,49,0.0,2.0,32,0.00,,---,0.00,VWS V14.01,2013-04-18 17:17:00,
2013-04-18 10:22:00,67.1,37.1,30.24,SW,226,2.0,2.0,33,0.00,,---,0.00,VWS V14.01,2013-04-18 17:22:00,
2013-04-18 10:27:00,67.0,36.2,30.25,WSW,254,0.0,3.0,32,0.00,,---,0.00,VWS V14.01,2013-04-18 17:27:00,
2013-04-18 10:32:00,66.9,35.3,30.25,NNW,333,0.0,0.0,31,0.00,,---,0.00,VWS V14.01,2013-04-18 17:32:00,
2013-04-18 10:37:00,67.7,36.8,30.25,WSW,256,3.0,3.0,32,0.00,,---,0.00,VWS V14.01,2013-04-18 17:37:00,
2013-04-18 10:42:00,67.9,36.2,30.25,NNE,22,2.0,2.0,31,0.00,,---,0.00,VWS V14.01,2013-04-18 17:42:00,
2013-04-18 10:47:00,68.3,37.3,30.25,WNW,294,0.0,3.0,32,0.00,,---,0.00,VWS V14.01,2013-04-18 17:47:00,
2013-04-18 10:52:00,68.6,37.6,30.25,NW,306,3.0,3.0,32,0.00,,---,0.00,VWS V14.01,2013-04-18 17:52:00,
2013-04-18 10:57:00,68.6,35.1,30.25,NNE,21,1.0,6.0,29,0.00,,---,0.00,VWS V14.01,2013-04-18 17:57:00,
2013-04-18 11:02:00,68.8,33.5,30.25,SW,226,0.0,5.0,27,0.00,,---,0.00,VWS V14.01,2013-04-18 18:02:00,
2013-04-18 11:07:00,68.2,33.9,30.25,West,275,1.0,5.0,28,0.00,,---,0.00,VWS V14.01,2013-04-18 18:07:00,
2013-04-18 11:12:00,67.7,35.2,30.25,NE,44,1.0,1.0,30,0.00,,---,0.00,VWS V14.01,2013-04-18 18:12:00,
2013-04-18 11:17:00,68.1,34.7,30.25,NNE,15,0.0,5.0,29,0.00,,---,0.00,VWS V14.01,2013-04-18 18:17:00,
2013-04-18 11:22:00,68.8,37.0,30.25,NW,310,0.0,0.0,31,0.00,,---,0.00,VWS V14.01,2013-04-18 18:22:00,
2013-04-18 11:27:00,69.6,36.0,30.25,NW,306,0.0,5.0,29,0.00,,---,0.00,VWS V14.01,2013-04-18 18:27:00,
2013-04-18 11:32:00,69.7,36.0,30.25,NW,318,2.0,4.0,29,0.00,,---,0.00,VWS V14.01,2013-04-18 18:32:00,
2013-04-18 11:37:00,69.3,35.7,30.25,WSW,252,0.0,7.0,29,0.00,,---,0.00,VWS V14.01,2013-04-18 18:37:00,
2013-04-18 11:42:00,69.0,35.5,30.25,WNW,298,2.0,2.0,29,0.00,,---,0.00,VWS V14.01,2013-04-18 18:42:00,
2013-04-18 11:47:00,69.2,35.6,30.24,SW,214,0.0,5.0,29,0.00,,---,0.00,VWS V14.01,2013-04-18 18:47:00,
2013-04-18 11:52:00,69.3,36.6,30.24,West,273,6.0,6.0,30,0.00,,---,0.00,VWS V14.01,2013-04-18 18:52:00,
2013-04-18 11:57:00,69.5,35.9,30.24,NNW,342,1.0,6.0,29,0.00,,---,0.00,VWS V14.01,2013-04-18 18:57:00,
2013-04-18 12:02:00,70.1,37.3,30.24,WNW,295,1.0,1.0,30,0.00,,---,0.00,VWS V14.01,2013-04-18 19:02:00,
2013-04-18 12:07:00,70.6,35.9,30.24,ESE,109,0.0,3.0,28,0.00,,---,0.00,VWS V14.01,2013-04-18 19:07:00,
2013-04-18 12:12:00,71.3,36.5,30.24,NW,321,5.0,5.0,28,0.00,,---,0.00,VWS V14.01,2013-04-18 19:12:00,
2013-04-18 12:17:00,71.0,34.4,30.24,West,281,1.0,6.0,26,0.00,,---,0.00,VWS V14.01,2013-04-18 19:17:00,
2013-04-18 12:22:00,71.1,36.4,30.24,NNE,24,4.0,4.0,28,0.00,,---,0.00,VWS V14.01,2013-04-18 19:22:00,
2013-04-18 12:27:00,71.4,35.7,30.24,West,259,3.0,13.0,27,0.00,,---,0.00,VWS V14.01,2013-04-18 19:27:00,
2013-04-18 12:32:00,71.2,37.3,30.23,West,265,2.0,2.0,29,0.00,,---,0.00,VWS V14.01,2013-04-18 19:32:00,
2013-04-18 12:37:00,71.4,36.6,30.23,West,265,3.0,7.0,28,0.00,,---,0.00,VWS V14.01,2013-04-18 19:37:00,
2013-04-18 12:42:00,71.6,35.9,30.23,ENE,64,2.0,4.0,27,0.00,,---,0.00,VWS V14.01,2013-04-18 19:42:00,
2013-04-18 12:47:00,72.4,36.6,30.23,NE,44,0.0,8.0,27,0.00,,---,0.00,VWS V14.01,2013-04-18 19:47:00,
2013-04-18 12:52:00,72.5,37.6,30.23,NNW,331,2.0,2.0,28,0.00,,---,0.00,VWS V14.01,2013-04-18 19:52:00,
2013-04-18 12:57:00,72.2,36.4,30.23,WSW,247,0.0,8.0,27,0.00,,---,0.00,VWS V14.01,2013-04-18 19:57:00,
2013-04-18 13:02:00,71.9,36.1,30.23,NNW,348,4.0,4.0,27,0.00,,---,0.00,VWS V14.01,2013-04-18 20:02:00,
2013-04-18 13:07:00,72.0,36.2,30.23,WSW,254,1.0,5.0,27,0.00,,---,0.00,VWS V14.01,2013-04-18 20:07:00,
2013-04-18 13:12:00,72.3,36.5,30.22,West,264,2.0,4.0,27,0.00,,---,0.00,VWS V14.01,2013-04-18 20:12:00,
2013-04-18 13:17:00,72.5,36.7,30.22,North,351,4.0,4.0,27,0.00,,---,0.00,VWS V14.01,2013-04-18 20:17:00,
2013-04-18 13:22:00,73.3,36.4,30.22,NW,313,2.0,3.0,26,0.00,,---,0.00,VWS V14.01,2013-04-18 20:22:00,
2013-04-18 13:27:00,73.8,35.8,30.22,ENE,78,0.0,5.0,25,0.00,,---,0.00,VWS V14.01,2013-04-18 20:27:00,
2013-04-18 13:32:00,74.0,36.0,30.21,West,274,1.0,1.0,25,0.00,,---,0.00,VWS V14.01,2013-04-18 20:32:00,
2013-04-18 13:37:00,74.4,36.3,30.21,SW,225,1.0,5.0,25,0.00,,---,0.00,VWS V14.01,2013-04-18 20:37:00,
2013-04-18 13:42:00,74.9,36.7,30.21,North,5,1.0,5.0,25,0.00,,---,0.00,VWS V14.01,2013-04-18 20:42:00,
2013-04-18 13:47:00,74.7,36.6,30.22,NNW,328,0.0,5.0,25,0.00,,---,0.00,VWS V14.01,2013-04-18 20:47:00,
2013-04-18 13:52:00,74.6,36.5,30.21,NW,309,2.0,2.0,25,0.00,,---,0.00,VWS V14.01,2013-04-18 20:52:00,
2013-04-18 13:57:00,74.4,36.3,30.21,WSW,254,0.0,3.0,25,0.00,,---,0.00,VWS V14.01,2013-04-18 20:57:00,
2013-04-18 14:02:00,74.3,37.2,30.21,West,276,2.0,6.0,26,0.00,,---,0.00,VWS V14.01,2013-04-18 21:02:00,
2013-04-18 14:07:00,74.0,37.0,30.21,NNE,12,1.0,6.0,26,0.00,,---,0.00,VWS V14.01,2013-04-18 21:07:00,
2013-04-18 14:12:00,74.2,38.1,30.21,NW,312,1.0,3.0,27,0.00,,---,0.00,VWS V14.01,2013-04-18 21:12:00,
2013-04-18 14:17:00,74.2,37.1,30.20,NNW,332,0.0,4.0,26,0.00,,---,0.00,VWS V14.01,2013-04-18 21:17:00,
2013-04-18 14:22:00,74.6,36.5,30.21,WNW,292,3.0,3.0,25,0.00,,---,0.00,VWS V14.01,2013-04-18 21:22:00,
2013-04-18 14:27:00,74.9,37.7,30.20,NNE,26,0.0,5.0,26,0.00,,---,0.00,VWS V14.01,2013-04-18 21:27:00,
2013-04-18 14:32:00,75.5,37.2,30.20,NNE,18,0.0,1.0,25,0.00,,---,0.00,VWS V14.01,2013-04-18 21:32:00,
2013-04-18 14:37:00,76.0,37.7,30.20,NW,318,4.0,5.0,25,0.00,,---,0.00,VWS V14.01,2013-04-18 21:37:00,
2013-04-18 14:42:00,76.2,38.8,30.20,NW,315,2.0,3.0,26,0.00,,---,0.00,VWS V14.01,2013-04-18 21:42:00,
2013-04-18 14:47:00,76.2,37.8,30.20,NNE,15,0.0,4.0,25,0.00,,---,0.00,VWS V14.01,2013-04-18 21:47:00,
2013-04-18 14:52:00,75.7,37.4,30.20,NNE,30,1.0,1.0,25,0.00,,---,0.00,VWS V14.01,2013-04-18 21:52:00,
2013-04-18 14:57:00,75.8,36.5,30.19,NE,34,2.0,6.0,24,0.00,,---,0.00,VWS V14.01,2013-04-18 21:57:00,
2013-04-18 15:02:00,75.7,37.4,30.19,SW,236,0.0,2.0,25,0.00,,---,0.00,VWS V14.01,2013-04-18 22:02:00,
2013-04-18 15:07:00,75.5,38.2,30.19,WSW,237,4.0,8.0,26,0.00,,---,0.00,VWS V14.01,2013-04-18 22:07:00,
2013-04-18 15:12:00,75.1,35.9,30.19,NNE,15,0.0,4.0,24,0.00,,---,0.00,VWS V14.01,2013-04-18 22:12:00,
2013-04-18 15:17:00,75.1,37.9,30.18,NNE,21,1.0,4.0,26,0.00,,---,0.00,VWS V14.01,2013-04-18 22:17:00,
2013-04-18 15:22:00,75.5,37.2,30.18,SSW,200,4.0,6.0,25,0.00,,---,0.00,VWS V14.01,2013-04-18 22:22:00,
2013-04-18 15:27:00,75.1,36.9,30.18,ENE,67,2.0,7.0,25,0.00,,---,0.00,VWS V14.01,2013-04-18 22:27:00,
2013-04-18 15:32:00,75.1,35.9,30.18,ENE,69,3.0,4.0,24,0.00,,---,0.00,VWS V14.01,2013-04-18 22:32:00,
2013-04-18 15:37:00,75.4,37.2,30.18,NW,306,0.0,4.0,25,0.00,,---,0.00,VWS V14.01,2013-04-18 22:37:00,
2013-04-18 15:42:00,76.0,37.7,30.18,SSW,195,3.0,4.0,25,0.00,,---,0.00,VWS V14.01,2013-04-18 22:42:00,
2013-04-18 15:47:00,75.5,37.2,30.18,NNE,26,5.0,6.0,25,0.00,,---,0.00,VWS V14.01,2013-04-18 22:47:00,
2013-04-18 15:52:00,75.5,37.2,30.18,WNW,296,0.0,5.0,25,0.00,,---,0.00,VWS V14.01,2013-04-18 22:52:00,
2013-04-18 15:57:00,75.6,36.3,30.18,WNW,294,0.0,5.0,24,0.00,,---,0.00,VWS V14.01,2013-04-18 22:57:00,
2013-04-18 16:02:00,75.6,37.3,30.17,NW,306,0.0,6.0,25,0.00,,---,0.00,VWS V14.01,2013-04-18 23:02:00,
2013-04-18 16:07:00,75.8,38.5,30.17,NW,317,0.0,6.0,26,0.00,,---,0.00,VWS V14.01,2013-04-18 23:07:00,
2013-04-18 16:12:00,76.1,36.7,30.17,NE,54,1.0,2.0,24,0.00,,---,0.00,VWS V14.01,2013-04-18 23:12:00,
2013-04-18 16:17:00,76.2,36.8,30.17,NNW,346,0.0,2.0,24,0.00,,---,0.00,VWS V14.01,2013-04-18 23:17:00,
2013-04-18 16:22:00,76.4,35.9,30.17,NE,38,1.0,5.0,23,0.00,,---,0.00,VWS V14.01,2013-04-18 23:22:00,
2013-04-18 16:27:00,76.3,36.9,30.17,North,355,0.0,5.0,24,0.00,,---,0.00,VWS V14.01,2013-04-18 23:27:00,
2013-04-18 16:32:00,76.4,35.9,30.16,ENE,76,0.0,2.0,23,0.00,,---,0.00,VWS V14.01,2013-04-18 23:32:00,
2013-04-18 16:37:00,76.4,37.0,30.16,North,351,2.0,6.0,24,0.00,,---,0.00,VWS V14.01,2013-04-18 23:37:00,
2013-04-18 16:42:00,76.7,36.2,30.16,NNW,336,0.0,3.0,23,0.00,,---,0.00,VWS V14.01,2013-04-18 23:42:00,
2013-04-18 16:47:00,76.7,36.2,30.16,North,351,1.0,3.0,23,0.00,,---,0.00,VWS V14.01,2013-04-18 23:47:00,
2013-04-18 16:52:00,76.6,35.0,30.16,WSW,241,0.0,3.0,22,0.00,,---,0.00,VWS V14.01,2013-04-18 23:52:00,
2013-04-18 16:57:00,76.3,35.8,30.16,NNE,25,1.0,5.0,23,0.00,,---,0.00,VWS V14.01,2013-04-18 23:57:00,
2013-04-18 17:02:00,76.1,35.7,30.16,NW,323,0.0,1.0,23,0.00,,---,0.00,VWS V14.01,2013-04-19 00:02:00,
2013-04-18 17:07:00,76.0,36.6,30.15,NNE,22,1.0,4.0,24,0.00,,---,0.00,VWS V14.01,2013-04-19 00:07:00,
2013-04-18 17:12:00,76.2,36.8,30.16,SW,230,0.0,3.0,24,0.00,,---,0.00,VWS V14.01,2013-04-19 00:12:00,
2013-04-18 17:17:00,76.6,36.1,30.16,NE,42,0.0,4.0,23,0.00,,---,0.00,VWS V14.01,2013-04-19 00:17:00,
2013-04-18 17:22:00,77.2,36.6,30.16,ENE,61,1.0,1.0,23,0.00,,---,0.00,VWS V14.01,2013-04-19 00:22:00,
2013-04-18 17:27:00,77.3,36.7,30.16,ENE,61,0.0,1.0,23,0.00,,---,0.00,VWS V14.01,2013-04-19 00:27:00,
2013-04-18 17:32:00,77.6,38.0,30.15,SW,234,1.0,2.0,24,0.00,,---,0.00,VWS V14.01,2013-04-19 00:32:00,
2013-04-18 17:37:00,77.5,35.7,30.15,NE,36,1.0,4.0,22,0.00,,---,0.00,VWS V14.01,2013-04-19 00:37:00,
2013-04-18 17:42:00,77.0,36.4,30.15,SSE,153,2.0,2.0,23,0.00,,---,0.00,VWS V14.01,2013-04-19 00:42:00,
2013-04-18 17:47:00,76.2,40.8,30.15,West,267,2.0,3.0,28,0.00,,---,0.00,VWS V14.01,2013-04-19 00:47:00,
2013-04-18 17:52:00,75.6,41.1,30.15,WNW,298,5.0,5.0,29,0.00,,---,0.00,VWS V14.01,2013-04-19 00:52:00,
2013-04-18 17:57:00,75.0,40.6,30.15,WNW,296,1.0,5.0,29,0.00,,---,0.00,VWS V14.01,2013-04-19 00:57:00,
2013-04-18 18:02:00,74.6,41.2,30.15,WNW,286,1.0,4.0,30,0.00,,---,0.00,VWS V14.01,2013-04-19 01:02:00,
2013-04-18 18:07:00,74.2,39.9,30.16,West,261,0.0,6.0,29,0.00,,---,0.00,VWS V14.01,2013-04-19 01:07:00,
2013-04-18 18:12:00,74.1,40.7,30.16,West,263,2.0,2.0,30,0.00,,---,0.00,VWS V14.01,2013-04-19 01:12:00,
2013-04-18 18:17:00,73.6,40.3,30.15,NW,323,0.0,3.0,30,0.00,,---,0.00,VWS V14.01,2013-04-19 01:17:00,
2013-04-18 18:22:00,73.1,40.7,30.15,West,264,0.0,0.0,31,0.00,,---,0.00,VWS V14.01,2013-04-19 01:22:00,
2013-04-18 18:27:00,72.7,40.3,30.16,West,281,0.0,3.0,31,0.00,,---,0.00,VWS V14.01,2013-04-19 01:27:00,
2013-04-18 18:32:00,72.5,40.2,30.16,West,281,0.0,1.0,31,0.00,,---,0.00,VWS V14.01,2013-04-19 01:32:00,
2013-04-18 18:37:00,72.2,39.9,30.16,West,281,0.0,1.0,31,0.00,,---,0.00,VWS V14.01,2013-04-19 01:37:00,
2013-04-18 18:42:00,71.9,41.3,30.16,West,281,0.0,0.0,33,0.00,,---,0.00,VWS V14.01,2013-04-19 01:42:00,
2013-04-18 18:47:00,71.5,40.9,30.15,West,277,0.0,1.0,33,0.00,,---,0.00,VWS V14.01,2013-04-19 01:47:00,
2013-04-18 18:52:00,71.1,40.6,30.15,West,277,0.0,0.0,33,0.00,,---,0.00,VWS V14.01,2013-04-19 01:52:00,
2013-04-18 18:57:00,70.8,39.5,30.15,West,277,0.0,0.0,32,0.00,,---,0.00,VWS V14.01,2013-04-19 01:57:00,
2013-04-18 19:02:00,70.5,40.0,30.16,West,277,0.0,0.0,33,0.00,,---,0.00,VWS V14.01,2013-04-19 02:02:00,
2013-04-18 19:07:00,70.2,41.3,30.16,West,277,0.0,0.0,35,0.00,,---,0.00,VWS V14.01,2013-04-19 02:07:00,
2013-04-18 19:12:00,69.5,42.1,30.16,West,277,0.0,0.0,37,0.00,,---,0.00,VWS V14.01,2013-04-19 02:12:00,
2013-04-18 19:17:00,68.7,42.8,30.16,West,277,0.0,0.0,39,0.00,,---,0.00,VWS V14.01,2013-04-19 02:17:00,
2013-04-18 19:22:00,67.7,41.9,30.16,West,277,0.0,0.0,39,0.00,,---,0.00,VWS V14.01,2013-04-19 02:22:00,
2013-04-18 19:27:00,66.7,41.6,30.16,West,277,0.0,0.0,40,0.00,,---,0.00,VWS V14.01,2013-04-19 02:27:00,
2013-04-18 19:32:00,65.8,42.1,30.16,West,277,0.0,0.0,42,0.00,,---,0.00,VWS V14.01,2013-04-19 02:32:00,
2013-04-18 19:37:00,65.0,42.0,30.16,West,277,0.0,0.0,43,0.00,,---,0.00,VWS V14.01,2013-04-19 02:37:00,
2013-04-18 19:42:00,64.3,41.9,30.16,West,277,0.0,0.0,44,0.00,,---,0.00,VWS V14.01,2013-04-19 02:42:00,
2013-04-18 19:47:00,63.8,41.5,30.16,West,277,0.0,0.0,44,0.00,,---,0.00,VWS V14.01,2013-04-19 02:47:00,
2013-04-18 19:51:00,63.1,41.4,30.17,West,277,0.0,0.0,45,0.00,,---,0.00,VWS V14.01,2013-04-19 02:51:00,
2013-04-18 19:56:00,62.6,41.5,30.16,West,277,0.0,0.0,46,0.00,,---,0.00,VWS V14.01,2013-04-19 02:56:00,
2013-04-18 20:01:00,62.2,41.2,30.17,West,277,0.0,0.0,46,0.00,,---,0.00,VWS V14.01,2013-04-19 03:01:00,
2013-04-18 20:06:00,61.7,41.3,30.17,West,277,0.0,0.0,47,0.00,,---,0.00,VWS V14.01,2013-04-19 03:06:00,
2013-04-18 20:11:00,61.2,41.4,30.17,West,277,0.0,0.0,48,0.00,,---,0.00,VWS V14.01,2013-04-19 03:11:00,
2013-04-18 20:16:00,60.8,41.0,30.17,West,277,0.0,0.0,48,0.00,,---,0.00,VWS V14.01,2013-04-19 03:16:00,
2013-04-18 20:21:00,60.3,40.5,30.17,West,277,0.0,0.0,48,0.00,,---,0.00,VWS V14.01,2013-04-19 03:21:00,
2013-04-18 20:26:00,60.0,40.3,30.18,West,277,0.0,0.0,48,0.00,,---,0.00,VWS V14.01,2013-04-19 03:26:00,
2013-04-18 20:31:00,59.7,40.0,30.18,West,277,0.0,0.0,48,0.00,,---,0.00,VWS V14.01,2013-04-19 03:31:00,
2013-04-18 20:36:00,59.3,40.7,30.18,West,277,0.0,0.0,50,0.00,,---,0.00,VWS V14.01,2013-04-19 03:36:00,
2013-04-18 20:41:00,59.0,40.4,30.18,West,277,0.0,0.0,50,0.00,,---,0.00,VWS V14.01,2013-04-19 03:41:00,
2013-04-18 20:46:00,58.6,40.0,30.18,West,277,0.0,0.0,50,0.00,,---,0.00,VWS V14.01,2013-04-19 03:46:00,
2013-04-18 20:51:00,58.3,40.3,30.18,West,277,0.0,0.0,51,0.00,,---,0.00,VWS V14.01,2013-04-19 03:51:00,
2013-04-18 20:56:00,58.0,40.0,30.18,West,277,0.0,0.0,51,0.00,,---,0.00,VWS V14.01,2013-04-19 03:56:00,
2013-04-18 21:01:00,57.8,39.8,30.18,West,277,0.0,0.0,51,0.00,,---,0.00,VWS V14.01,2013-04-19 04:01:00,
2013-04-18 21:06:00,57.4,39.4,30.19,West,277,0.0,0.0,51,0.00,,---,0.00,VWS V14.01,2013-04-19 04:06:00,
2013-04-18 21:11:00,57.2,39.8,30.19,West,277,0.0,0.0,52,0.00,,---,0.00,VWS V14.01,2013-04-19 04:11:00,
2013-04-18 21:16:00,56.9,40.0,30.18,West,277,0.0,0.0,53,0.00,,---,0.00,VWS V14.01,2013-04-19 04:16:00,
2013-04-18 21:21:00,56.7,39.8,30.18,West,277,0.0,0.0,53,0.00,,---,0.00,VWS V14.01,2013-04-19 04:21:00,
2013-04-18 21:26:00,56.4,39.5,30.19,West,277,0.0,0.0,53,0.00,,---,0.00,VWS V14.01,2013-04-19 04:26:00,
2013-04-18 21:31:00,56.2,39.8,30.19,West,277,0.0,0.0,54,0.00,,---,0.00,VWS V14.01,2013-04-19 04:31:00,
2013-04-18 21:36:00,55.9,40.0,30.19,West,277,0.0,0.0,55,0.00,,---,0.00,VWS V14.01,2013-04-19 04:36:00,
2013-04-18 21:41:00,55.5,39.6,30.19,West,277,0.0,0.0,55,0.00,,---,0.00,VWS V14.01,2013-04-19 04:41:00,
2013-04-18 21:46:00,55.3,39.9,30.19,West,277,0.0,0.0,56,0.00,,---,0.00,VWS V14.01,2013-04-19 04:46:00,
2013-04-18 21:51:00,55.0,39.6,30.20,West,277,0.0,0.0,56,0.00,,---,0.00,VWS V14.01,2013-04-19 04:51:00,
2013-04-18 21:56:00,54.8,39.9,30.20,West,277,0.0,0.0,57,0.00,,---,0.00,VWS V14.01,2013-04-19 04:56:00,
2013-04-18 22:01:00,54.7,40.2,30.20,West,277,0.0,0.0,58,0.00,,---,0.00,VWS V14.01,2013-04-19 05:01:00,
2013-04-18 22:06:00,54.5,40.0,30.20,West,277,0.0,0.0,58,0.00,,---,0.00,VWS V14.01,2013-04-19 05:06:00,
2013-04-18 22:11:00,54.3,39.4,30.20,West,277,0.0,0.0,57,0.00,,---,0.00,VWS V14.01,2013-04-19 05:11:00,
2013-04-18 22:16:00,54.2,39.3,30.20,West,277,0.0,0.0,57,0.00,,---,0.00,VWS V14.01,2013-04-19 05:16:00,
2013-04-18 22:21:00,54.1,39.7,30.20,West,277,0.0,0.0,58,0.00,,---,0.00,VWS V14.01,2013-04-19 05:21:00,
2013-04-18 22:26:00,53.9,39.5,30.20,West,277,0.0,0.0,58,0.00,,---,0.00,VWS V14.01,2013-04-19 05:26:00,
2013-04-18 22:31:00,53.8,39.8,30.20,West,277,0.0,0.0,59,0.00,,---,0.00,VWS V14.01,2013-04-19 05:31:00,
2013-04-18 22:36:00,53.6,40.1,30.20,West,277,0.0,0.0,60,0.00,,---,0.00,VWS V14.01,2013-04-19 05:36:00,
2013-04-18 22:41:00,53.4,39.9,30.20,West,277,0.0,0.0,60,0.00,,---,0.00,VWS V14.01,2013-04-19 05:41:00,
2013-04-18 22:46:00,53.2,39.3,30.20,West,277,0.0,0.0,59,0.00,,---,0.00,VWS V14.01,2013-04-19 05:46:00,
2013-04-18 22:51:00,53.0,39.1,30.20,West,277,0.0,0.0,59,0.00,,---,0.00,VWS V14.01,2013-04-19 05:51:00,
2013-04-18 22:56:00,52.9,39.0,30.20,West,277,0.0,0.0,59,0.00,,---,0.00,VWS V14.01,2013-04-19 05:56:00,
2013-04-18 23:01:00,52.7,39.2,30.20,West,277,0.0,0.0,60,0.00,,---,0.00,VWS V14.01,2013-04-19 06:01:00,
2013-04-18 23:06:00,52.6,39.1,30.20,West,277,0.0,0.0,60,0.00,,---,0.00,VWS V14.01,2013-04-19 06:06:00,
2013-04-18 23:11:00,52.4,38.9,30.20,West,277,0.0,0.0,60,0.00,,---,0.00,VWS V14.01,2013-04-19 06:11:00,
2013-04-18 23:16:00,52.2,39.2,30.20,West,277,0.0,0.0,61,0.00,,---,0.00,VWS V14.01,2013-04-19 06:16:00,
2013-04-18 23:21:00,52.1,39.5,30.20,West,277,0.0,0.0,62,0.00,,---,0.00,VWS V14.01,2013-04-19 06:21:00,
2013-04-18 23:26:00,52.0,39.4,30.19,West,277,0.0,0.0,62,0.00,,---,0.00,VWS V14.01,2013-04-19 06:26:00,
2013-04-18 23:31:00,51.9,39.7,30.19,West,277,0.0,0.0,63,0.00,,---,0.00,VWS V14.01,2013-04-19 06:31:00,
2013-04-18 23:36:00,51.7,39.5,30.19,West,277,0.0,0.0,63,0.00,,---,0.00,VWS V14.01,2013-04-19 06:36:00,
2013-04-18 23:41:00,51.5,39.7,30.19,West,277,0.0,0.0,64,0.00,,---,0.00,VWS V14.01,2013-04-19 06:41:00,
2013-04-18 23:46:00,51.4,39.7,30.19,West,277,0.0,0.0,64,0.00,,---,0.00,VWS V14.01,2013-04-19 06:46:00,
2013-04-18 23:51:00,51.3,39.5,30.19,West,277,0.0,0.0,64,0.00,,---,0.00,VWS V14.01,2013-04-19 06:51:00,
2013-04-18 23:56:00,51.3,40.0,30.19,West,277,0.0,0.0,65,0.00,,---,0.00,VWS V14.01,2013-04-19 06:56:00,